Tracking 19854 objects as of 21-Sep-2019
HD Live streaming from Space Station
objects crossing your sky now

PALAPA B1

Track PALAPA B1 now!
PALAPA B1 is classified as:


NORAD ID: 14134
Int'l Code: 1983-059C
Perigee: 35,799.7 km
Apogee: 35,838.2 km
Inclination: 14.5 °
Period: 1,437.4 minutes
Semi major axis: 42189 km
RCS: 1.2604 m2 (large)
Launch date: June 18, 1983
Source: Indonesia (INDO)
Launch site: AIR FORCE EASTERN TEST RANGE (AFETR)
aabbcc
Your satellite tracking list
Your tracking list is empty




NASA's NSSDC Master Catalog

Two Line Element Set (TLE):
1 14134U 83059C   19263.59317118 -.00000362 +00000-0 +00000-0 0  9996
2 14134 014.4639 349.4305 0004563 020.6046 329.8661 01.00181941096124
Source of the keplerian elements: AFSPC